0 HST 1 20580U 90037B 26247.13916270 .00003685 00000-0 11016-3 0 9998 2 20580 28.4724 260.6336 0001483 300.8652 59.1798 15.31547902800688 0 ISS (ZARYA) 1 25544U 98067A 26247.07916240 .00003366 00000-0 69282-4 0 9999 2 25544 51.6313 269.6269 0005012 105.0359 255.1184 15.48983228583981 0 CXO 1 25867U 99040B 26248.71042646 .00000937 00000-0 00000-0 0 9991 2 25867 57.3108 114.4960 7716344 309.5451 0.1502 0.37805198 17634